KA3MCG-13 Weather Reports


time (UTC)temp
C
wind
direction
speed
KPH
gust
KPH
rain 1hr
cm
rain 24hr
cm
rain mn
cm
humidity
%
barometer
mb
20260509190016 18 315 1.6 9.7 0.00 0.13 0.13 67 1009.0
20260509183036 16 0 3.2 9.7 0.00 0.13 0.13 73 1009.2
20260509180036 16 270 1.6 6.4 0.00 0.13 0.13 78 1010.0
20260509173016 15 0.0 3.2 0.00 0.13 0.13 84 1010.3
20260509170016 14 0.0 3.2 0.00 0.13 0.13 86 1010.2
20260509163016 14 0.0 8.0 0.00 0.13 0.13 86 1010.5
20260509160016 13 158 1.6 8.0 0.00 0.13 0.13 86 1010.6
20260509153016 13 0 1.6 9.7 0.00 0.13 0.13 88 1010.6
20260509150016 12 203 1.6 8.0 0.08 0.13 0.13 89 1010.3
20260509143036 12 0.0 1.6 0.13 0.13 0.13 88 1010.4
20260509140036 13 203 1.6 12.9 0.05 0.05 0.05 84 1010.4
20260509133016 13 315 6.4 24.1 0.00 0.00 0.00 75 1010.2
20260509130016 14 293 4.8 17.7 0.00 0.00 0.00 70 1010.4
20260509123016 14 315 8.0 25.7 0.00 0.00 0.00 64 1010.2
20260509120016 14 248 3.2 14.5 0.00 0.00 0.00 63 1010.7
20260509113016 13 248 3.2 12.9 0.00 0.00 0.00 68 1010.5
20260509110016 11 0.0 0.0 0.00 0.00 0.00 75 1010.1
20260509103015 10 0.0 0.0 0.00 0.00 0.00 82 1009.8
20260509100016 10 0.0 0.0 0.00 0.00 0.00 81 1009.8
20260509093016 11 0.0 0.0 0.00 0.00 0.00 81 1009.9
20260509090016 11 0.0 0.0 0.00 0.00 0.00 80 1009.8
20260509083015 10 0.0 0.0 0.00 0.00 0.00 79 1009.9
20260509080015 10 0.0 0.0 0.00 0.00 0.00 80 1010.0
20260509073016 10 0.0 0.0 0.00 0.00 0.00 80 1010.0
20260509070016 10 0.0 0.0 0.00 0.00 0.00 79 1010.2
20260509063015 11 0.0 0.0 0.00 0.00 0.00 76 1010.3
20260509060015 11 0.0 0.0 0.00 0.00 0.00 75 1010.5
20260509053035 11 0.0 1.6 0.00 0.00 0.00 75 1010.7
20260509050015 11 0.0 1.6 0.00 0.00 0.00 73 1010.7
20260509043015 11 0.0 3.2 0.00 0.00 0.00 69 1010.9
20260509040015 11 0.0 0.0 0.00 0.00 0.00 73 1011.1
20260509033017 12 0.0 0.0 0.00 0.00 0.00 70 1011.3
20260509030017 12 0.0 0.0 0.00 0.00 0.00 70 1011.3
20260509023017 12 0.0 1.6 0.00 0.00 0.00 67 1011.4
20260509020017 12 0.0 3.2 0.00 0.00 0.00 69 1011.3
20260509013017 13 0.0 3.2 0.00 0.00 0.00 68 1011.1
20260509010017 12 0.0 3.2 0.00 0.00 0.00 65 1010.9
20260509003017 13 0.0 3.2 0.00 0.00 0.00 62 1010.8
20260509000017 15 0.0 3.2 0.00 0.00 0.00 57 1010.7
20260508233017 17 248 1.6 8.0 0.00 0.00 0.00 51 1010.4
20260508230017 17 248 4.8 17.7 0.00 0.00 0.00 43 1010.1
20260508223016 17 225 4.8 17.7 0.00 0.00 0.00 41 1010.2
20260508220016 18 248 6.4 22.5 0.00 0.00 0.00 41 1010.2
20260508213037 18 270 4.8 22.5 0.00 0.00 0.00 40 1010.2
20260508210037 18 225 4.8 14.5 0.00 0.00 0.00 40 1010.2
20260508203037 18 248 6.4 30.6 0.00 0.00 0.00 36 1010.5
20260508200037 19 248 6.4 25.7 0.00 0.00 0.00 35 1010.6
20260508193017 18 225 6.4 25.7 0.00 0.00 0.00 37 1010.8